Theta_e
323 328 331 334 335 336 336 334 333 333 334 333 331 330 328 326 325 325 325 325 325 325 324 323 321 319 319 318 318 318 319 319
319 320 320 320 327 335 335 337 336 336 335 335 336 336 336 334 330 327 326 326 326 326 326 326 325 324 323 322 321 320 321 322
319 319 320 320 319 320 324 330 335 336 337 336 337 337 338 338 337 334 329 327 327 327 327 327 327 327 326 326 324 323 324 326
319 319 320 319 319 319 319 320 322 326 332 337 339 339 339 338 338 337 337 334 329 327 328 328 328 328 328 328 327 326 325 326
318 319 320 320 320 320 320 319 320 321 326 332 332 333 333 326 328 331 334 338 337 331 328 328 328 328 329 330 330 330 326 326
317 318 320 320 320 320 320 319 319 319 319 320 324 329 325 326 328 328 330 333 338 338 332 330 329 330 333 335 338 339 335 329
317 319 320 320 319 319 320 320 320 320 321 321 321 321 324 325 326 328 329 332 336 338 338 335 334 335 337 339 340 341 340 337
317 318 318 318 319 319 319 319 319 319 319 320 321 321 323 325 326 327 329 331 334 337 339 340 340 341 341 342 342 342 342 341
316 318 317 318 317 318 319 319 319 319 319 319 319 322 324 324 325 329 330 332 335 338 340 341 341 342 343 343 343 343 341 339
318 317 317 318 319 319 319 320 319 319 319 319 317 321 323 323 324 330 331 334 337 340 341 341 342 344 345 344 341 341 340 339
317 317 318 319 319 319 320 320 320 320 319 319 318 319 321 323 328 331 334 334 335 338 339 340 343 345 344 342 340 341 340 338
317 317 318 318 319 322 321 321 320 320 319 319 318 319 322 326 330 333 331 331 333 335 335 337 342 342 343 340 339 341 341 339
317 317 318 318 318 319 327 319 319 319 320 319 318 321 325 330 332 329 327 328 328 331 334 339 341 340 340 341 335 337 341 340
317 317 318 318 319 319 327 324 320 321 321 320 322 326 331 331 327 325 325 326 328 332 335 335 338 339 338 337 334 333 335 334
315 316 317 317 318 319 327 329 325 325 326 326 330 330 330 326 324 324 325 327 329 329 329 334 338 337 335 331 331 332 333 334
315 316 316 316 318 319 328 332 330 332 334 333 333 331 325 323 324 324 325 327 327 327 326 327 331 331 331 331 330 330 330 332
316 316 316 316 316 316 317 329 333 334 334 334 331 325 323 324 324 324 326 324 326 326 328 329 331 330 330 330 330 330 330 332
314 314 316 316 316 317 316 317 330 335 334 331 327 323 323 323 324 325 326 326 327 329 332 331 331 331 330 329 329 330 330 327
313 314 313 315 316 316 317 317 317 329 333 331 329 323 324 324 324 326 328 327 328 328 331 328 327 330 329 327 327 326 325 322
Wind_Speed
26 28 30 32 34 35 36 35 35 35 37 38 38 38 37 38 39 38 37 36 35 35 35 34 32 32 32 32 31 30 30 29
24 25 28 32 36 40 41 41 39 39 39 40 42 41 39 41 42 41 40 40 39 38 38 37 35 35 34 33 32 32 32 31
26 27 29 35 38 36 41 44 46 45 44 43 42 42 43 42 43 43 43 42 42 42 41 40 38 37 37 37 36 35 34 33
32 33 33 34 37 37 42 41 44 44 46 47 45 45 43 43 43 42 41 43 44 44 42 42 40 39 40 39 39 39 39 37
38 36 37 36 34 35 36 42 42 42 45 48 48 46 44 34 33 36 40 41 43 44 42 41 40 40 40 40 39 39 39 42
37 35 34 35 30 29 27 33 39 40 40 41 43 45 42 41 38 37 38 39 40 40 39 39 38 38 37 37 37 36 38 40
33 32 32 36 30 28 27 28 31 34 36 39 42 43 43 42 40 39 37 36 35 34 34 35 35 35 35 36 35 36 36 37
30 31 28 26 29 28 29 28 27 30 36 44 48 46 45 44 42 40 36 33 31 28 26 27 28 29 31 33 34 36 37 37
25 25 19 16 16 20 25 29 32 33 38 42 47 48 46 43 42 37 34 30 26 22 21 21 21 22 24 26 29 31 32 33
28 26 16 18 21 22 23 28 36 34 35 38 43 48 47 43 38 35 32 27 24 23 23 22 22 21 21 22 24 26 27 28
19 18 15 14 20 28 32 33 37 38 36 36 41 44 44 39 36 33 28 25 24 24 25 25 25 23 21 22 23 23 25 26
14 17 15 21 22 27 33 36 37 39 35 36 39 39 39 36 32 29 28 27 27 26 26 26 26 24 23 22 23 24 26 26
16 12 24 24 20 27 25 26 33 35 34 37 34 35 35 32 32 30 29 28 27 27 25 24 25 23 21 22 23 21 23 22
24 23 21 23 22 28 27 22 27 32 33 34 34 35 35 34 32 29 29 27 27 24 23 24 24 24 23 24 24 24 22 21
18 20 19 19 22 27 27 22 25 27 31 34 36 37 35 33 31 30 28 26 24 22 22 22 23 22 21 19 19 19 22 23
16 18 19 19 20 23 23 19 19 26 30 33 34 33 33 32 31 32 29 27 24 22 21 21 21 20 19 17 18 20 21 22
25 23 23 21 22 19 19 19 20 27 31 33 34 34 34 34 34 33 30 28 27 25 25 23 23 22 21 21 20 20 20 23
31 25 27 26 25 21 18 18 21 30 34 34 33 34 35 36 36 34 32 31 30 30 28 26 23 21 19 15 14 19 21 24
31 25 21 20 22 23 22 20 20 26 35 36 35 35 34 35 34 33 31 30 28 26 26 22 19 19 14 12 16 21 22 20
Wind_Direction
233 238 241 237 239 240 242 241 239 238 237 236 237 239 241 240 239 238 237 238 239 238 239 239 237 238 239 239 241 243 247 250
239 234 241 244 241 239 242 244 244 242 239 238 238 241 242 243 243 241 239 240 240 240 242 243 241 242 244 246 247 246 247 249
245 241 241 244 239 234 237 241 243 244 246 247 244 247 247 247 248 246 243 241 242 242 243 245 246 246 246 247 247 249 249 248
253 253 252 251 238 237 233 237 240 241 244 246 245 245 246 248 246 245 246 246 245 244 244 246 248 248 249 251 250 249 251 252
257 255 253 249 240 247 237 231 234 241 245 244 246 246 246 243 241 239 242 245 247 247 246 246 248 251 250 253 254 253 251 253
250 248 256 246 237 240 228 225 233 239 243 242 240 241 243 243 241 240 241 246 250 253 251 249 248 250 253 251 254 255 254 251
243 244 260 243 229 232 235 235 237 238 241 242 241 239 240 240 242 242 244 247 249 250 249 249 249 250 252 254 255 256 255 255
256 250 253 245 227 229 236 239 240 241 244 243 239 237 239 242 243 243 245 248 248 248 246 245 246 250 253 255 256 258 260 260
256 255 254 238 240 242 243 247 247 245 249 251 241 237 238 240 243 244 247 248 251 250 247 245 244 248 254 257 261 262 264 264
272 271 253 266 267 273 275 267 252 253 256 254 239 232 236 238 242 240 244 244 244 244 243 241 240 244 249 253 255 262 264 265
273 269 268 286 288 281 277 278 261 251 255 250 234 229 233 236 234 234 236 237 236 236 236 236 235 237 243 245 252 258 260 264
289 282 285 299 306 298 282 274 257 243 244 238 228 226 228 227 228 226 227 230 231 231 231 231 231 235 241 246 257 261 259 263
307 294 314 316 301 316 292 260 242 235 233 229 221 219 219 218 219 222 224 226 226 226 225 226 229 235 241 247 257 260 262 262
305 307 315 317 326 324 309 265 248 239 227 219 211 210 208 212 217 219 222 221 222 220 223 227 230 235 242 244 256 260 262 263
321 321 319 316 322 315 310 287 244 230 222 214 208 205 207 213 214 216 217 217 217 218 224 228 231 236 238 247 251 255 256 258
330 335 336 328 319 322 319 295 238 224 214 207 207 209 212 212 212 213 211 211 214 217 219 218 218 222 230 239 247 253 255 254
299 303 306 319 328 322 319 307 239 224 220 216 213 212 213 213 213 211 208 209 210 213 212 213 217 221 226 235 242 251 253 247
290 296 294 302 309 314 316 297 264 239 233 228 221 218 217 215 212 211 209 208 209 211 212 214 216 220 222 232 244 248 235 214
279 288 297 292 290 292 296 303 283 255 246 240 234 229 223 219 215 211 209 209 212 214 213 212 213 211 222 234 229 208 203 203